Theta_e
312 312 319 323 323 324 325 328 330 335 331 328 333 329 321 320 319 315 313 313 313 314 312 311 311 311 311 312 312 316 314 315 323 318 320 322 311 310 312 309 310 310 309 309 308 307 305 303 303 302 302 302 303 308 313 314 315 317 317 317 317 318 318 318 318 318 318 317 317 317 317 317 317 316 315 315 315 316 318 319 320 321 322 321 322 322 322 321 321 321 322 323 323 323 322 322 322
312 312 319 323 324 323 327 333 330 331 331 330 334 326 320 321 317 315 315 315 315 312 311 311 311 310 311 312 309 312 310 309 319 317 315 314 310 312 311 309 309 308 309 308 307 306 304 303 302 302 302 302 305 310 313 314 315 316 316 316 316 317 317 318 318 317 317 316 316 316 316 316 316 315 314 314 314 316 317 319 320 321 321 321 321 321 321 321 321 322 322 323 322 322 322 322 321
311 312 320 324 324 324 330 334 329 327 324 329 337 329 319 318 319 319 316 314 314 311 311 311 310 309 309 311 308 309 312 310 312 313 310 309 311 312 310 309 308 307 306 305 305 305 304 303 303 303 302 303 306 311 313 313 315 316 315 314 315 316 316 317 317 316 316 314 313 315 315 315 315 312 311 313 314 315 317 318 320 320 320 321 321 321 321 321 321 322 322 322 322 321 321 321 321
310 313 320 324 328 332 333 332 334 330 324 327 329 327 322 322 323 318 314 312 311 310 311 311 309 309 309 311 310 310 313 311 309 311 311 309 310 311 310 309 307 307 305 304 304 304 305 304 303 303 302 302 305 311 313 313 314 315 314 313 314 315 315 316 315 315 313 311 309 312 314 314 311 308 308 312 313 315 317 319 319 319 320 320 320 320 320 321 321 322 322 322 321 321 321 321 320
311 317 321 324 329 334 331 327 332 327 327 329 320 322 325 322 321 316 312 312 311 311 312 311 311 310 309 310 311 314 316 312 308 308 311 309 309 309 309 308 307 306 305 305 303 304 305 304 304 303 303 303 304 310 313 314 314 315 314 312 313 313 314 314 312 310 308 307 307 308 311 310 307 304 306 311 312 314 317 318 319 319 319 320 319 320 320 321 322 321 321 320 320 320 320 320 319
316 320 321 323 323 326 328 327 329 326 329 329 321 325 324 318 317 314 312 312 312 312 311 310 311 311 311 312 310 312 314 311 309 308 309 309 308 308 308 308 307 306 305 304 303 304 304 304 305 304 305 303 303 307 312 314 314 314 312 309 311 311 311 310 308 307 305 304 304 306 307 306 303 302 305 307 308 312 316 318 318 319 319 320 319 320 321 322 321 320 319 319 320 319 319 319 319
319 321 325 325 322 325 328 328 330 331 328 324 324 325 321 317 314 313 313 312 312 311 311 311 309 310 311 311 309 310 309 308 309 309 309 309 308 308 308 308 307 306 305 304 303 304 304 305 305 306 306 304 303 304 309 314 314 313 309 306 306 306 306 306 305 304 303 302 302 305 305 303 301 301 303 304 303 308 314 317 318 318 319 319 319 320 322 322 320 319 319 319 319 319 319 319 319
320 323 329 330 328 327 326 326 328 328 325 321 322 322 320 316 312 314 315 312 313 312 311 312 309 309 310 309 311 311 307 308 308 309 309 309 308 308 308 307 306 305 306 305 304 304 304 306 306 307 306 303 303 302 305 311 313 310 306 305 305 303 303 303 302 302 302 301 302 303 303 301 300 300 301 300 302 307 312 315 317 318 318 319 319 320 322 321 318 318 318 318 319 318 319 319 318
319 321 326 329 328 326 327 328 325 324 323 321 318 319 319 313 311 315 316 313 313 313 313 312 309 309 310 308 312 311 308 309 308 309 309 308 309 308 308 306 306 305 306 306 305 304 305 306 306 307 305 303 303 303 303 305 307 305 304 305 303 302 301 301 301 302 302 302 302 302 301 301 301 300 300 300 303 308 311 314 317 318 318 319 320 321 322 320 318 317 318 318 318 318 319 318 318
322 321 325 328 325 324 328 328 327 326 323 320 317 318 317 311 312 314 315 314 313 314 312 310 308 308 309 309 313 310 308 309 308 309 308 308 308 307 307 306 305 305 306 306 305 305 305 306 306 306 305 303 303 303 303 303 303 303 303 303 302 301 301 301 302 302 302 302 302 301 301 301 301 301 302 302 303 307 311 314 316 317 318 319 320 320 321 320 318 317 317 317 317 318 318 318 318
327 324 325 326 323 324 327 328 332 334 323 317 316 316 316 312 312 313 313 312 312 313 311 308 308 309 309 310 313 309 308 308 308 309 308 308 308 307 307 305 306 305 306 306 306 306 306 306 306 306 304 303 303 303 303 303 303 303 303 303 302 302 301 302 302 302 302 302 302 302 302 302 302 302 303 303 303 305 310 313 314 315 316 317 319 320 321 320 318 317 317 317 317 318 318 318 318
328 326 327 327 328 329 329 330 332 334 326 318 316 315 314 312 312 313 312 311 311 312 311 308 309 310 309 311 312 307 306 307 308 308 307 307 307 306 306 306 306 305 306 306 306 306 306 306 306 306 304 303 303 303 303 303 303 303 302 302 302 301 301 302 302 302 302 302 302 303 303 302 302 302 303 303 303 304 309 313 313 314 314 316 319 320 320 320 319 317 317 318 318 317 318 319 318
331 332 330 327 332 333 327 328 330 328 327 322 317 314 313 313 314 314 314 312 311 311 312 309 308 308 309 312 310 306 306 307 308 308 307 307 306 306 306 306 306 306 306 306 307 306 306 306 306 305 305 304 304 304 303 303 303 303 303 302 302 301 301 302 302 302 302 302 303 303 303 303 303 303 303 303 302 302 307 312 313 314 314 316 319 320 319 320 320 318 317 318 318 318 318 318 318
329 334 331 326 330 331 323 325 328 323 326 324 314 312 313 314 314 314 313 312 312 311 310 307 307 308 309 311 311 309 307 307 308 308 307 307 306 306 306 306 306 306 307 307 306 306 306 306 305 305 306 307 306 305 304 303 303 303 303 302 302 302 301 302 302 302 302 302 303 303 303 303 303 303 303 303 302 301 305 311 313 314 315 316 319 319 318 319 320 319 318 318 318 317 316 315 316
324 335 332 326 327 327 324 324 325 320 325 322 310 310 312 313 312 312 312 312 312 310 307 306 306 308 309 310 313 312 307 307 308 307 307 306 306 306 306 306 306 306 306 306 306 306 306 306 305 305 307 308 307 306 304 304 304 304 303 302 302 302 302 302 302 303 303 302 302 302 303 303 303 304 304 303 302 301 304 310 313 313 315 316 317 317 317 318 319 320 319 318 318 315 313 315 315
327 336 327 324 327 326 325 323 320 320 325 318 308 309 312 312 311 311 311 310 311 308 307 308 306 307 309 309 311 309 307 308 307 308 307 306 306 306 306 306 306 306 306 306 305 305 305 305 305 306 308 308 308 307 305 305 304 304 303 303 302 302 303 303 303 304 304 303 302 302 303 303 304 304 304 303 303 301 304 310 312 313 314 315 316 316 316 317 318 319 319 319 318 315 313 314 314
327 330 324 325 327 325 326 324 318 317 322 316 309 309 312 313 311 309 307 307 310 309 308 310 306 305 308 309 308 307 308 307 307 308 307 306 307 306 306 306 306 306 306 305 304 304 305 304 305 307 308 308 309 308 306 305 304 303 303 303 303 303 304 304 304 304 305 304 304 303 302 303 304 304 304 303 303 301 304 309 311 313 314 314 316 315 316 317 318 318 319 319 319 317 315 315 317
323 324 324 326 328 328 327 323 317 314 315 314 311 310 311 313 312 309 306 307 308 309 310 310 308 307 306 306 307 307 307 307 307 307 307 306 307 307 306 306 307 306 307 306 304 304 305 305 306 308 309 309 309 308 307 305 303 304 303 304 304 304 305 305 305 305 305 305 305 304 303 303 304 304 304 303 303 302 303 307 310 312 313 314 315 315 316 317 318 318 319 320 320 319 319 319 320
324 327 323 326 332 330 321 315 314 312 313 313 312 311 310 311 311 308 308 311 309 308 310 308 309 309 307 305 306 306 306 306 307 306 307 307 306 306 307 307 307 307 307 306 305 305 305 306 307 308 308 309 308 308 307 305 304 304 304 305 304 304 305 305 306 305 306 306 305 305 304 303 303 304 304 303 303 302 302 304 309 312 313 314 315 316 316 317 318 318 318 320 321 321 321 320 320
324 324 320 328 334 325 313 312 313 311 311 312 312 309 309 310 309 307 308 311 309 309 309 308 309 310 309 307 305 306 306 306 306 307 306 306 307 306 306 307 307 307 306 306 305 305 307 307 307 308 308 308 308 307 307 306 305 305 305 305 305 305 305 306 306 306 306 306 305 305 305 303 302 303 303 303 302 302 301 303 308 310 312 314 315 316 316 317 317 318 319 320 321 321 321 320 319
320 319 324 329 324 318 313 312 313 311 309 311 312 309 309 309 308 307 308 309 309 308 307 308 309 309 308 309 306 304 305 305 306 306 306 306 306 306 307 307 307 307 306 305 305 306 308 308 308 308 308 308 307 307 307 306 305 306 305 305 306 305 305 306 306 306 306 306 305 305 306 303 302 303 302 302 302 302 301 301 305 308 311 313 315 315 316 317 317 318 318 319 321 321 322 321 321
316 317 327 326 314 313 315 313 312 311 308 309 311 309 309 309 308 308 308 308 309 311 310 307 308 308 307 307 306 304 305 305 305 305 305 305 306 306 307 307 307 306 305 305 307 308 308 308 308 308 308 308 307 306 306 305 306 306 305 306 306 305 305 305 305 306 306 306 305 305 305 303 302 302 302 302 303 302 301 301 301 306 311 312 314 315 315 316 317 317 318 319 320 321 322 322 321
315 316 320 320 314 312 313 313 312 310 309 310 311 308 308 308 309 310 309 308 308 312 315 311 308 305 303 304 305 307 308 308 306 304 305 305 306 307 307 307 307 306 306 307 308 309 308 308 308 308 308 308 307 306 306 305 306 306 306 306 305 305 305 305 305 306 306 305 305 305 304 302 302 302 302 302 303 303 302 301 300 305 311 310 311 314 315 316 317 317 318 319 321 321 322 322 322
313 315 316 315 312 311 313 314 315 312 309 311 309 306 308 310 310 309 308 308 307 309 312 313 308 302 301 304 306 308 308 307 306 305 306 306 306 307 307 306 306 305 307 309 309 309 308 308 308 308 308 308 307 307 306 305 305 306 306 306 305 305 305 305 306 305 306 305 305 305 303 301 302 302 302 303 303 303 303 302 300 304 309 309 309 313 315 315 316 317 317 319 321 322 322 322 322
312 314 316 313 310 312 313 313 314 313 310 308 307 307 308 309 308 307 308 307 307 307 307 310 308 306 307 307 307 307 307 305 304 305 306 306 306 306 306 306 305 306 308 310 309 309 309 308 308 308 308 308 307 307 306 305 305 306 306 306 305 305 306 305 305 305 305 305 305 305 303 301 302 302 302 303 303 303 303 303 301 302 306 307 308 311 314 314 315 317 317 319 320 321 322 322 323
314 313 314 311 310 313 311 311 313 313 312 308 307 310 309 308 307 307 309 308 306 306 306 307 308 309 311 310 308 306 306 306 303 304 306 306 306 306 306 306 306 308 309 310 309 309 309 308 309 308 308 307 307 307 306 305 305 306 306 306 305 305 305 305 305 305 306 305 305 305 303 301 302 302 302 303 304 304 303 302 301 301 303 304 305 309 312 311 313 316 316 318 320 321 322 322 323
311 311 311 311 311 311 310 311 311 310 311 311 309 310 310 309 308 308 310 310 308 308 307 306 306 307 307 309 309 306 305 305 303 304 305 305 306 306 307 307 307 309 310 310 309 309 309 309 308 307 308 308 307 307 306 304 304 305 306 306 306 305 305 306 305 305 306 306 305 305 304 301 301 302 302 303 303 303 303 302 302 302 302 302 302 306 309 309 311 314 314 317 320 320 321 322 322
308 309 309 310 310 309 309 310 310 307 308 311 310 308 309 309 309 309 309 310 309 310 311 308 305 306 305 306 307 306 305 303 303 304 304 304 305 306 307 308 308 308 309 310 309 309 309 308 308 307 308 308 307 307 306 305 304 305 306 306 306 306 305 305 305 306 306 306 305 304 304 302 301 301 302 302 303 303 303 302 302 302 301 301 301 303 306 307 309 310 312 317 320 320 320 321 321
307 307 308 311 309 308 309 310 309 307 308 311 309 307 310 310 310 311 307 307 309 309 311 310 307 305 305 305 305 305 304 302 302 302 303 305 305 307 307 308 308 308 309 310 310 309 309 308 307 308 308 308 307 306 306 305 305 306 307 306 307 306 305 304 304 306 306 305 305 304 304 303 301 301 301 302 302 302 302 302 302 302 302 301 301 303 305 305 305 307 312 317 319 320 320 320 321
308 306 306 309 309 309 307 306 308 306 308 312 308 305 311 312 310 310 306 306 308 309 310 310 308 305 304 305 304 305 303 302 302 302 304 305 306 306 307 308 308 309 309 310 310 309 309 308 308 308 308 308 306 305 305 306 306 306 307 307 306 306 306 305 305 306 305 305 305 304 304 303 301 301 301 302 302 302 302 302 302 302 302 301 301 303 305 304 302 303 310 316 318 319 320 319 320
308 306 307 310 307 312 310 306 308 307 308 310 307 307 310 309 308 307 307 307 308 310 311 310 309 307 305 305 305 305 304 302 301 302 304 305 306 307 308 309 309 309 310 310 311 310 309 308 308 308 308 308 306 304 305 306 306 307 307 307 306 305 306 305 305 306 305 305 304 304 304 303 302 301 301 302 302 302 302 302 302 301 301 301 301 304 304 303 301 302 307 314 317 319 319 319 319
313 307 312 316 307 313 316 308 308 307 307 307 306 309 308 308 309 308 309 311 309 310 312 312 311 310 307 306 305 305 305 302 301 301 303 305 307 308 308 309 309 310 310 310 311 309 309 309 308 308 308 307 305 304 305 306 306 307 307 307 306 306 306 305 305 306 306 305 304 304 304 303 302 301 301 301 302 302 302 302 302 301 301 301 301 303 303 302 302 301 304 312 316 317 319 319 318
323 310 314 321 309 310 315 308 308 309 308 307 307 310 310 311 311 308 309 310 310 312 314 313 312 311 308 307 306 305 305 304 303 302 302 303 306 308 309 309 310 310 310 310 310 309 309 308 308 308 308 306 304 304 306 306 306 307 307 306 306 306 306 305 305 306 306 305 304 303 303 303 302 301 301 301 302 302 302 302 301 301 301 301 301 302 303 303 302 302 303 309 314 315 318 319 315
323 312 311 319 313 310 312 309 310 311 310 309 308 308 308 310 310 307 308 308 310 311 311 311 310 310 309 308 307 306 306 306 306 303 302 303 304 306 309 309 310 310 310 310 310 309 309 308 308 309 308 305 304 305 306 306 306 307 307 306 306 306 306 305 305 305 305 304 303 303 303 302 302 301 301 301 302 302 302 301 301 301 301 301 301 302 304 304 303 302 302 307 312 314 317 317 314
319 315 311 317 317 311 312 311 310 310 311 310 310 310 308 308 307 307 308 308 309 310 309 309 309 309 308 308 307 307 306 307 306 304 303 304 303 305 307 309 310 310 311 310 310 309 308 307 308 309 308 305 305 306 306 306 307 307 307 306 306 306 306 305 305 305 305 303 302 302 302 302 302 301 301 301 301 302 302 301 301 301 301 301 301 302 304 304 304 303 302 305 309 313 317 316 312
318 319 315 318 318 313 312 313 311 310 311 313 312 310 310 309 309 309 310 310 310 310 310 309 309 309 309 308 308 307 307 307 305 303 304 304 304 305 307 308 309 309 309 309 309 308 307 307 309 309 307 305 306 307 307 306 307 307 306 306 306 306 306 305 305 305 304 303 302 302 302 302 302 301 301 301 301 302 302 302 301 301 302 302 301 302 303 304 304 303 302 305 307 312 316 314 310
313 315 314 315 315 312 312 315 313 310 313 319 316 312 311 311 311 311 310 311 312 311 310 310 310 310 310 309 309 308 307 307 305 304 304 304 304 305 306 308 308 308 308 307 307 307 307 308 309 309 307 305 306 307 306 306 307 307 306 306 306 306 305 305 305 305 303 303 302 302 303 302 302 301 301 301 301 302 302 302 301 301 302 302 301 302 302 303 304 304 303 304 307 312 315 313 309
313 313 314 314 314 313 313 315 314 311 314 320 318 315 313 312 312 312 312 312 312 312 311 311 311 311 310 310 310 309 307 306 307 307 304 303 304 305 306 307 307 307 307 307 307 308 308 309 308 309 307 306 306 305 305 306 306 306 305 305 305 305 305 305 305 304 303 302 302 302 303 302 302 302 301 301 301 301 302 302 301 301 302 302 302 301 301 302 304 304 302 304 308 311 313 312 310
315 315 315 312 314 316 315 316 317 314 314 320 321 316 314 313 312 312 312 312 312 312 312 312 313 313 312 312 311 310 309 308 310 310 305 302 303 305 306 306 307 307 308 308 308 308 308 309 309 308 308 306 305 304 304 305 304 304 304 304 304 305 304 304 304 304 303 303 302 303 303 303 302 302 302 301 301 301 301 302 301 301 302 302 302 301 301 302 303 304 303 303 306 309 311 311 310
316 314 312 314 317 317 316 319 321 317 313 316 319 316 313 313 315 319 318 316 316 316 315 314 313 314 314 313 312 311 311 310 310 310 307 303 302 304 305 306 307 307 307 308 308 309 309 309 309 308 307 306 304 304 303 303 303 304 304 304 304 304 304 304 304 304 305 304 303 303 303 303 302 302 302 301 301 301 301 301 301 301 302 302 302 301 301 301 302 304 303 302 304 306 308 308 309
326 321 314 319 321 316 318 322 320 320 318 315 316 316 319 324 327 330 322 317 319 319 319 321 318 315 315 316 316 313 312 311 310 310 309 306 305 304 305 305 306 306 307 308 308 309 309 309 309 309 307 305 304 304 303 303 303 304 305 305 305 305 304 305 305 305 305 305 303 303 303 303 302 302 302 301 301 301 301 301 301 301 301 302 302 301 301 301 302 303 304 303 302 303 304 305 306
330 325 316 320 322 318 321 323 320 323 326 318 315 318 325 332 328 323 319 319 320 317 317 323 325 323 320 322 324 319 314 312 310 309 309 308 305 303 304 305 306 306 307 308 309 309 309 309 309 308 307 305 304 304 304 304 303 304 306 306 306 305 305 305 305 306 306 305 303 302 303 302 302 302 302 302 301 301 301 301 301 301 301 302 301 301 301 301 301 302 303 303 302 302 303 303 304
321 318 317 320 320 319 321 321 318 322 325 316 314 320 323 322 317 318 322 321 320 317 320 327 333 335 330 326 327 326 321 315 311 309 308 308 306 304 305 305 305 306 307 308 308 309 309 308 308 307 306 304 304 304 304 305 304 304 305 305 306 306 305 306 306 306 306 305 303 302 302 302 302 302 302 302 301 301 301 301 301 301 301 301 301 301 301 301 301 301 302 303 302 302 302 302 302
320 314 316 320 317 318 319 317 316 321 323 319 318 320 320 319 316 319 322 318 321 326 330 334 337 340 338 330 326 326 324 317 313 311 310 309 307 305 305 304 305 306 306 307 307 308 308 308 308 307 306 305 304 304 304 305 304 304 305 305 306 306 306 307 306 306 306 304 303 302 302 302 302 302 302 302 301 301 301 301 301 301 301 301 301 301 301 301 301 301 302 302 302 302 302 302 302
317 312 313 315 314 318 319 317 319 320 318 321 322 315 317 327 323 318 318 319 326 334 337 341 340 333 331 333 329 323 320 316 313 311 311 310 307 304 305 305 306 306 306 307 307 308 308 307 308 307 306 305 304 305 304 305 304 304 305 306 307 307 306 307 306 306 305 304 303 302 302 302 302 302 302 301 301 301 301 301 301 301 301 301 301 301 301 301 301 301 301 302 302 302 302 302 302
313 311 313 316 317 318 317 317 320 321 319 321 323 315 315 328 328 319 317 320 328 336 339 340 333 323 322 331 334 325 318 316 314 312 310 309 306 305 306 305 305 306 306 306 307 307 307 307 307 307 306 305 305 305 304 304 304 305 306 307 307 307 306 306 305 305 304 303 303 302 302 302 301 302 301 301 301 301 301 301 301 301 301 301 301 301 301 301 301 301 301 301 301 301 301 301 302
311 312 314 318 320 317 318 322 319 319 325 327 323 316 313 321 328 326 319 320 330 333 329 327 323 320 322 331 334 326 320 318 316 314 310 307 305 305 306 305 305 305 305 305 306 307 307 307 307 306 306 305 305 305 304 304 305 306 307 308 307 307 306 305 305 304 303 303 304 303 302 301 301 301 301 301 301 301 301 301 301 301 301 301 301 301 301 301 301 301 301 301 301 301 301 301 301
313 318 318 318 324 320 320 326 320 318 331 330 322 316 313 318 325 328 323 321 323 322 318 319 319 319 324 332 332 323 319 317 315 315 313 309 308 307 305 305 305 305 305 305 305 306 307 307 307 307 306 306 305 304 304 306 307 307 308 308 308 307 306 306 305 304 304 304 304 303 301 301 301 301 301 301 301 301 301 301 301 301 301 301 300 300 300 300 300 300 300 300 300 300 300 300 301
315 319 322 321 326 324 322 329 324 323 329 321 315 314 314 318 319 318 320 316 315 315 314 315 316 318 323 330 331 323 319 318 317 317 314 311 311 309 305 304 305 305 305 305 305 306 306 307 307 307 306 306 305 305 305 307 308 308 308 308 307 307 306 305 304 304 304 305 305 303 301 301 301 301 301 300 300 301 301 301 301 301 301 300 300 300 300 300 300 300 300 300 300 300 299 300 300
314 317 325 325 324 323 328 332 323 322 325 317 312 313 316 320 317 316 318 315 316 316 315 316 317 320 324 327 328 324 321 319 317 317 315 312 311 307 304 303 305 305 305 306 306 306 306 307 307 307 307 306 306 306 306 307 308 308 308 308 307 305 305 304 304 304 304 305 305 304 302 301 301 301 301 300 300 300 301 300 301 301 300 300 300 300 299 299 299 299 299 299 299 299 299 299 299
316 319 323 325 328 326 328 332 324 322 327 321 313 316 324 324 318 319 317 316 319 317 318 320 320 324 325 324 326 327 324 320 318 317 315 313 309 304 303 304 305 306 306 306 306 306 306 307 307 307 307 307 307 307 307 307 308 308 308 307 305 304 304 304 304 304 304 305 306 305 303 301 301 301 301 300 300 300 300 300 300 300 300 299 299 299 299 299 298 298 298 298 298 298 298 298 298
315 316 317 321 326 325 322 323 322 320 321 322 317 320 328 323 316 316 314 315 318 317 317 318 320 326 325 323 326 328 325 320 318 317 316 313 307 302 303 304 305 306 306 306 307 307 307 307 307 307 307 307 308 308 308 308 308 308 306 305 304 304 304 304 304 304 305 306 306 305 303 302 301 301 300 300 300 300 300 300 299 299 299 299 299 299 299 298 298 298 298 298 297 297 297 297 297
312 315 320 319 314 315 319 318 315 313 316 321 318 319 324 318 315 320 321 321 323 324 324 319 320 325 324 324 328 330 328 321 318 317 315 314 309 304 303 304 305 306 306 307 307 307 307 307 307 307 307 307 308 308 308 308 308 307 306 305 305 305 306 306 306 306 306 306 306 305 304 302 301 300 300 300 299 299 299 299 299 299 298 298 298 298 298 298 298 297 298 297 297 296 296 296 295
313 317 319 314 308 312 318 318 319 319 319 323 318 318 322 318 317 324 325 322 323 325 325 321 323 325 323 326 330 332 329 321 316 314 313 313 310 305 303 304 305 306 306 307 307 307 308 308 308 308 307 307 308 308 308 308 307 307 306 305 305 306 307 307 307 307 307 306 306 305 303 301 301 300 299 299 298 298 298 298 298 298 298 298 298 298 298 297 297 297 296 296 296 295 295 294 293
310 312 310 309 313 320 318 316 323 321 318 324 322 319 319 317 320 324 318 316 320 320 319 321 325 325 325 328 331 331 328 321 318 315 312 313 311 305 303 304 305 306 307 307 307 307 307 308 308 308 308 308 308 308 308 307 307 306 305 305 305 306 307 307 307 307 307 306 305 304 302 301 300 299 299 298 298 297 297 297 298 298 298 297 297 297 296 296 295 295 295 295 294 294 294 293 292
306 308 309 309 315 322 318 316 321 321 319 324 325 323 323 321 323 324 316 314 317 317 319 321 323 327 330 330 331 333 331 325 321 317 314 313 310 305 303 305 305 306 307 307 307 307 307 307 307 307 307 307 307 307 307 306 306 306 305 305 305 306 306 307 307 307 306 305 305 303 302 301 300 299 298 298 297 297 297 297 297 297 297 296 296 296 295 294 293 293 293 293 293 292 292 292 291
309 310 314 311 310 314 314 313 317 322 324 324 323 323 326 324 320 318 317 316 315 316 319 320 322 330 333 331 331 334 336 331 323 317 314 313 310 304 303 305 306 305 306 306 306 307 307 307 307 307 307 306 306 306 306 306 306 305 305 305 305 306 306 306 306 306 305 305 304 303 301 301 300 299 298 297 297 297 297 297 296 296 296 296 295 294 293 292 291 291 291 291 291 291 291 291 291
310 313 316 314 313 315 316 315 316 317 320 325 324 318 321 326 320 315 316 315 314 315 317 318 323 328 334 337 333 329 330 332 327 319 313 312 311 305 303 304 305 305 305 305 306 306 306 306 306 306 306 305 305 305 305 305 305 305 305 305 305 305 305 305 305 305 304 303 303 302 301 300 299 299 298 297 297 296 296 296 296 295 295 295 294 293 292 291 290 290 290 290 290 290 290 290 290
Wind_Speed
9 6 5 5 7 6 4 2 2 3 2 0 2 1 3 3 2 3 2 2 1 2 3 1 2 2 2 2 5 7 5 5 6 5 4 4 9 16 15 14 11 9 11 11 12 11 9 8 8 7 6 6 5 4 3 1 0 1 2 4 4 4 4 5 5 6 7 7 8 8 9 9 10 11 11 12 12 13 14 13 13 15 16 18 19 21 22 21 22 21 22 23 23 24 24 24 24
7 5 3 5 6 3 2 3 2 3 3 2 3 3 4 3 1 5 6 6 4 3 2 2 3 3 3 2 2 2 3 4 5 5 2 5 12 15 14 12 11 10 11 11 12 11 9 9 8 7 6 6 5 4 3 2 1 1 2 3 3 4 4 4 5 6 6 7 7 8 9 9 10 11 11 12 12 13 13 12 13 15 16 18 20 21 21 21 22 22 22 24 24 24 23 23 23
6 4 2 3 3 2 1 3 1 0 3 2 4 4 2 1 3 6 7 7 5 2 2 2 2 2 4 3 1 3 4 4 3 3 1 10 12 14 18 12 10 9 9 11 11 11 10 9 7 7 6 5 5 4 4 3 1 1 2 3 3 4 4 4 5 5 6 7 7 8 9 9 10 10 11 12 12 13 12 12 13 14 16 18 20 20 21 22 23 24 24 24 24 25 24 23 23
4 2 2 3 2 3 3 2 1 3 2 3 3 5 2 4 7 6 5 6 5 1 1 1 1 1 4 0 2 1 4 4 4 5 3 13 12 14 21 14 11 10 9 11 11 11 10 9 7 6 5 5 5 5 4 3 2 1 2 3 3 3 4 4 5 6 6 7 7 8 8 9 10 10 10 11 12 13 12 12 13 14 16 18 19 20 21 22 23 24 25 25 24 24 24 24 23
1 1 2 3 2 1 2 1 1 3 3 3 1 5 5 6 7 5 4 4 4 2 1 2 1 2 2 3 2 1 5 3 4 8 5 14 14 14 21 16 14 11 11 11 10 11 10 9 7 6 4 4 5 5 5 3 2 2 3 3 3 4 4 5 6 6 7 7 7 7 8 9 9 9 9 11 12 12 12 12 13 14 16 17 19 20 21 22 23 24 24 24 23 23 23 23 23
2 2 2 3 2 1 2 1 1 2 5 5 3 6 6 6 7 6 3 3 3 3 3 2 2 1 1 3 3 3 5 1 3 9 7 14 16 16 20 18 15 12 11 11 10 11 9 9 7 6 4 4 5 5 5 4 3 3 4 4 4 4 5 5 6 6 7 7 7 7 8 8 8 8 9 10 11 11 11 12 13 14 16 17 18 19 21 23 23 23 22 22 21 21 21 22 22
3 3 2 3 1 1 3 2 4 3 5 5 5 5 7 7 6 6 4 3 2 2 3 3 2 3 2 3 2 4 5 3 3 7 9 14 18 18 19 17 15 13 12 10 10 10 9 8 7 6 5 5 5 5 6 5 4 4 5 5 5 5 5 6 6 6 7 6 6 7 7 7 7 7 9 10 10 11 12 12 13 14 15 16 17 19 22 23 22 22 21 20 20 20 21 21 22
4 2 1 3 1 2 2 3 4 3 4 4 5 6 7 8 7 7 7 4 2 2 2 3 1 2 5 1 2 4 3 6 4 7 12 15 19 20 19 18 15 14 13 10 10 10 10 9 8 7 6 6 5 5 5 5 6 6 6 6 6 6 6 6 6 6 6 6 6 7 7 7 6 7 8 9 11 12 12 12 12 13 14 15 17 19 22 23 21 20 19 19 19 20 21 21 22
4 2 1 2 1 1 1 3 4 3 4 5 4 3 4 7 7 6 7 4 2 3 4 4 4 3 4 2 4 6 3 6 6 9 14 16 20 21 19 18 15 15 14 11 10 10 10 9 10 8 7 7 6 5 5 5 6 6 6 6 7 7 6 6 5 5 5 5 6 6 6 6 6 7 8 10 12 13 12 12 12 12 13 14 17 19 22 22 20 19 19 19 20 21 21 22 23
3 2 1 1 1 1 3 3 3 3 5 5 4 4 3 6 6 4 6 4 2 3 4 2 3 4 3 2 5 4 3 8 12 15 17 17 19 20 19 16 14 14 14 12 10 10 10 10 10 9 9 7 6 5 5 5 5 6 6 7 7 7 6 5 4 4 4 4 6 5 5 6 6 7 9 11 13 13 12 11 11 12 13 14 17 19 21 21 20 20 19 19 20 20 22 23 23
3 3 2 2 1 2 4 3 4 4 6 4 3 4 4 6 5 2 3 2 2 3 2 3 2 5 1 3 4 2 6 14 17 19 19 19 19 19 17 15 14 13 12 11 10 10 10 10 10 10 9 7 6 5 5 5 5 5 6 6 7 6 5 5 4 4 4 4 5 4 5 6 7 8 9 11 12 12 11 10 10 12 14 15 17 19 21 20 19 19 18 19 20 20 21 23 22
2 1 3 2 2 3 4 3 5 5 6 4 2 3 2 6 4 3 4 3 3 2 3 5 3 4 2 4 4 2 9 19 19 18 20 21 20 17 15 15 15 13 11 9 10 10 10 10 10 10 9 7 6 5 5 5 5 5 5 6 6 6 5 4 3 3 3 4 4 3 4 7 7 8 9 10 12 11 10 9 10 12 14 15 16 17 20 21 19 18 18 18 18 19 20 21 21
3 2 5 2 3 3 3 2 5 4 5 3 4 3 1 4 4 6 6 3 4 4 5 8 3 3 3 5 4 2 8 19 19 18 20 20 18 17 16 15 15 13 11 10 10 11 11 11 10 9 8 8 6 5 5 5 5 5 5 6 6 6 4 3 3 2 3 4 3 3 4 6 7 8 9 11 12 11 10 9 9 11 13 14 14 16 20 21 22 19 17 17 17 18 19 20 20
3 2 5 2 1 1 3 2 4 2 4 5 3 3 2 2 4 4 6 3 6 7 5 7 6 2 3 3 4 3 9 19 20 19 20 19 17 17 17 16 15 15 13 11 11 11 12 11 10 9 9 9 6 5 6 6 6 5 5 5 5 5 4 3 2 2 2 4 4 4 5 6 6 7 9 11 12 10 9 8 8 10 12 13 13 16 19 21 23 20 18 16 16 17 18 21 21
4 2 5 1 2 1 3 3 3 3 4 5 2 2 3 3 2 2 5 5 8 6 1 3 6 3 4 5 5 6 13 22 21 20 20 19 18 17 17 16 16 15 14 12 11 12 12 12 11 10 10 9 7 6 6 6 5 5 4 5 5 5 4 2 1 1 2 4 5 5 5 5 5 7 9 11 11 10 9 7 8 9 10 12 12 15 18 21 22 21 20 17 16 16 16 19 21
3 3 4 1 2 2 3 3 1 1 4 5 3 1 1 6 1 1 4 4 3 3 1 4 5 2 4 7 6 6 14 22 21 21 21 19 19 18 17 17 17 16 14 13 12 13 12 12 12 11 10 9 8 7 6 6 5 4 4 5 5 5 4 1 1 1 2 5 7 7 6 4 5 6 8 10 10 11 10 7 8 8 8 10 11 14 17 20 22 22 22 19 17 16 17 18 19
3 3 2 1 3 3 4 4 2 2 5 5 5 1 2 6 3 1 2 1 2 3 2 5 4 2 5 5 6 4 15 23 22 23 22 20 19 18 18 19 18 17 17 16 14 13 12 13 13 12 10 9 9 8 7 5 4 5 5 5 5 4 3 0 1 1 2 5 7 8 7 4 4 6 8 9 10 10 9 7 7 7 7 9 10 13 16 19 21 22 22 21 20 18 17 16 17
2 3 2 3 4 4 5 5 5 3 3 4 4 3 6 4 4 1 2 2 3 4 5 5 5 6 7 5 3 8 19 24 24 25 22 20 19 18 19 20 20 20 19 18 16 15 14 14 13 12 12 11 10 9 8 6 5 5 5 5 5 3 2 1 2 1 2 4 6 8 9 6 4 6 7 8 9 9 9 7 6 6 7 8 9 12 14 17 19 20 22 22 22 20 17 16 16
2 3 2 5 5 5 5 5 5 3 2 4 4 3 6 5 3 1 2 5 4 5 7 5 7 11 10 4 7 15 21 24 26 26 23 21 21 20 20 21 22 22 21 20 19 17 15 14 13 13 12 12 12 11 9 7 6 6 6 6 4 2 2 1 2 2 2 4 5 6 8 7 5 5 6 7 7 8 8 7 5 5 6 7 9 11 13 16 17 18 20 22 22 21 18 16 16
2 3 3 6 6 5 4 5 6 4 3 2 4 2 3 5 3 1 3 6 5 8 8 5 9 13 12 6 10 16 20 24 25 25 23 23 24 24 23 23 24 25 24 21 19 18 17 16 15 14 13 13 14 12 10 9 7 7 6 5 4 2 2 3 2 2 2 4 5 5 7 8 6 4 6 6 6 7 8 8 6 5 6 6 8 10 12 14 15 17 19 20 21 21 19 17 18
2 3 5 6 4 3 6 6 6 5 3 2 3 0 3 5 2 2 3 4 9 10 10 10 13 14 12 8 10 14 17 19 21 22 22 22 24 25 26 26 27 25 23 21 19 19 19 18 16 15 14 14 14 13 11 10 9 8 7 5 4 4 4 4 3 2 2 3 4 4 6 8 6 4 5 5 5 7 9 9 8 7 6 6 8 9 11 13 15 17 18 18 19 20 18 17 18
1 3 6 5 4 3 7 6 5 4 2 1 2 1 4 2 1 5 6 6 9 7 9 13 14 13 10 10 11 12 13 14 16 19 20 22 23 25 27 27 26 24 22 22 21 20 20 19 18 17 17 15 14 13 11 10 10 9 7 6 5 5 5 5 4 3 2 3 3 4 5 8 6 3 4 4 5 7 9 10 10 8 6 7 8 8 10 12 13 15 16 17 18 19 18 17 18
2 3 3 4 5 4 4 4 4 4 4 3 4 3 2 2 5 5 9 15 13 6 6 9 12 12 11 11 11 11 13 13 15 20 23 24 25 27 28 28 26 24 24 24 22 21 21 21 19 18 18 16 14 13 12 11 10 9 8 7 7 6 6 5 5 4 3 3 3 3 5 7 4 2 3 3 4 7 8 10 10 8 6 7 8 8 8 10 12 13 15 16 17 19 20 20 20
3 4 4 4 4 5 5 4 5 6 6 6 2 2 1 4 6 2 8 18 16 10 7 6 8 8 8 9 11 13 15 15 19 25 28 29 31 32 31 29 26 24 24 24 23 22 23 23 21 19 19 17 15 14 14 13 11 9 9 9 8 7 6 6 5 4 4 3 2 3 5 5 3 2 3 2 4 6 7 10 10 7 6 7 7 7 7 9 10 11 13 15 17 20 21 22 22
3 5 4 2 2 6 5 4 5 5 6 4 2 5 6 8 3 5 16 19 13 12 10 8 6 4 6 9 12 13 13 15 19 23 25 29 31 29 28 27 25 24 25 24 23 24 24 24 22 20 19 17 15 15 15 14 12 11 11 11 9 8 7 6 5 4 5 3 2 4 5 4 2 2 3 2 2 4 6 9 9 7 6 6 6 6 7 8 8 9 11 13 16 20 22 23 21
4 5 3 2 4 6 3 4 5 5 4 1 2 8 7 6 3 8 20 19 11 9 10 10 8 7 8 8 10 12 13 14 15 19 24 27 25 24 26 27 25 26 26 23 23 24 23 24 23 21 19 18 16 16 16 15 13 13 13 11 9 9 7 6 5 5 5 4 3 4 5 3 2 2 2 2 1 3 5 7 8 6 6 6 6 6 7 8 7 7 9 11 14 18 21 22 22
3 3 3 4 6 6 2 5 5 2 3 3 5 9 7 4 2 7 13 8 4 5 8 10 8 11 11 8 8 10 11 15 19 21 20 20 21 24 27 27 27 27 25 24 25 24 23 24 24 21 19 18 18 17 17 16 15 15 13 11 10 9 7 7 6 6 6 5 4 5 5 2 1 2 2 1 1 2 4 6 6 6 6 7 7 7 6 6 6 6 8 10 12 16 19 21 21
1 1 5 7 6 6 4 6 5 2 3 5 7 8 8 1 1 13 13 1 2 4 8 9 9 12 11 10 9 7 9 15 21 19 16 19 24 27 28 29 31 29 28 27 26 24 24 25 24 22 20 19 19 18 17 16 16 15 13 11 11 9 7 7 7 7 7 5 6 6 5 2 1 1 1 1 0 1 4 5 5 5 6 7 8 7 5 5 5 5 7 10 11 14 17 20 21
1 1 4 8 7 6 7 6 4 5 3 5 6 6 8 4 10 20 12 4 3 4 7 8 9 10 9 9 8 7 9 12 16 18 21 26 29 30 31 32 33 32 32 30 27 26 25 25 24 23 21 21 20 19 18 16 16 16 13 12 12 10 8 7 7 8 7 6 7 7 5 3 1 0 1 1 1 2 3 4 3 5 6 7 8 6 5 6 6 6 7 10 11 13 15 18 20
2 1 1 5 7 6 7 1 4 6 3 5 4 5 8 8 14 18 8 4 5 7 9 8 7 8 8 8 7 8 9 9 13 20 26 28 29 31 32 33 33 33 33 31 29 28 27 25 24 23 23 22 21 20 18 17 17 16 15 13 12 12 9 7 8 8 7 8 8 8 6 4 2 1 1 2 2 3 3 3 3 4 5 6 7 6 6 7 9 9 9 10 12 14 15 17 18
1 2 1 2 2 5 7 1 6 5 2 4 5 3 9 9 12 13 7 4 4 7 11 8 7 7 7 7 7 9 9 10 16 22 25 27 29 31 32 33 32 33 33 32 32 30 28 26 25 25 24 23 21 21 20 18 18 17 16 14 13 12 10 9 9 9 8 9 9 8 7 5 3 2 2 3 3 4 4 3 3 4 5 5 5 6 7 8 10 11 11 11 12 14 15 17 18
2 2 3 2 2 5 8 1 7 4 0 2 5 3 9 11 13 9 3 0 5 7 10 8 8 8 7 7 7 9 9 11 16 21 24 27 29 30 32 32 32 33 33 33 32 30 29 27 26 26 24 24 23 22 21 19 18 17 16 15 14 12 11 11 10 10 10 10 10 9 8 7 5 3 3 3 4 4 5 4 3 4 5 5 5 6 8 9 11 12 11 11 13 14 15 18 20
3 1 4 3 3 4 7 2 3 2 1 1 4 3 6 8 9 7 3 3 1 6 10 10 10 9 8 7 7 8 8 9 11 17 24 26 28 30 31 31 32 33 33 34 33 32 30 28 27 27 25 24 23 23 21 20 19 18 17 15 14 13 12 12 12 11 11 11 11 10 9 9 6 4 3 4 4 5 4 4 3 4 4 5 4 5 7 9 10 11 12 12 13 14 15 18 21
4 1 3 4 3 3 4 3 2 0 1 3 4 5 10 12 11 11 8 5 5 9 13 13 10 9 9 7 7 8 8 9 10 15 23 27 29 30 31 31 31 32 33 34 34 33 31 29 29 27 26 25 24 23 22 21 20 18 16 15 14 14 13 13 13 12 12 12 11 10 10 10 8 5 4 4 4 5 5 4 3 3 3 3 4 4 6 7 8 10 11 12 13 14 16 19 21
2 2 2 3 3 3 4 4 1 2 2 4 4 6 14 17 16 15 12 8 8 13 15 13 11 10 9 8 9 9 9 11 12 16 23 27 29 30 31 31 31 32 34 34 34 32 31 30 30 28 27 25 24 23 23 22 20 18 17 16 16 16 15 15 14 13 12 12 11 10 10 10 8 7 6 5 5 5 5 5 5 4 3 2 3 4 5 6 7 8 10 11 13 15 16 20 22
4 4 4 2 4 4 5 5 3 3 2 5 7 9 13 16 17 17 12 7 9 14 14 12 11 10 9 8 9 10 10 12 13 17 21 24 28 30 31 32 32 32 33 33 33 32 32 32 31 30 28 26 25 25 25 23 21 20 19 18 18 18 17 17 16 14 13 12 11 11 10 10 9 8 7 6 6 6 5 5 5 5 4 3 2 4 5 5 5 7 9 10 13 16 19 21 24
3 2 2 3 4 5 6 4 4 1 1 7 8 9 13 14 17 18 13 8 10 13 13 13 12 11 9 10 11 11 12 11 9 13 17 22 26 27 29 31 30 30 31 33 33 32 33 33 33 32 30 28 28 28 28 27 25 23 22 22 21 20 19 18 17 15 13 12 12 11 11 10 9 8 8 7 7 7 6 5 5 5 5 4 3 3 4 4 4 6 9 11 13 18 20 21 24
1 2 3 4 3 6 6 3 4 2 0 6 6 8 13 14 16 17 13 11 12 12 12 13 14 12 9 10 12 12 9 6 4 8 13 18 22 24 27 29 30 30 32 34 34 35 35 34 34 33 31 30 29 30 30 29 28 27 26 26 24 22 21 20 18 16 14 13 12 12 11 10 10 9 8 8 8 8 7 6 5 5 5 4 3 3 3 2 4 5 8 12 14 17 18 19 21
2 2 1 4 3 4 6 3 4 3 1 5 7 9 14 16 15 16 14 12 12 10 10 12 12 11 10 9 10 10 8 7 6 8 10 15 21 23 26 28 32 33 34 35 35 35 35 35 34 33 32 32 31 31 31 30 29 27 26 24 24 22 21 20 18 15 14 14 13 13 12 11 10 9 9 8 8 9 8 7 6 6 5 4 3 3 3 2 4 4 6 10 14 15 14 16 15
2 3 2 4 3 2 3 4 5 3 2 4 8 9 12 13 10 11 11 9 8 8 8 11 10 11 12 9 8 8 9 9 8 7 8 11 16 20 24 28 31 32 32 35 35 35 36 36 36 34 33 33 31 31 31 29 27 26 24 21 21 21 20 20 18 15 14 14 14 13 13 12 11 10 10 9 9 9 9 7 7 7 6 4 3 4 4 3 4 4 5 7 11 13 11 10 9
3 4 5 4 3 3 4 4 6 5 2 3 6 8 8 6 4 8 8 4 5 6 5 9 9 9 10 8 8 8 9 9 9 9 8 9 12 19 25 28 30 30 32 36 37 37 38 37 36 35 34 33 32 31 30 29 27 26 23 19 19 20 18 19 19 17 16 15 14 14 13 13 12 11 11 10 9 9 9 8 7 7 7 5 4 4 5 5 4 4 5 5 7 10 10 8 6
5 4 7 6 4 3 3 5 6 5 4 3 4 5 6 5 4 8 7 6 8 6 5 10 9 6 7 7 8 8 8 7 8 9 9 9 11 17 21 25 28 30 33 37 38 38 38 37 36 34 34 34 33 31 30 30 29 28 26 23 22 21 19 21 22 21 19 17 15 14 14 14 13 12 12 11 10 10 10 9 8 7 7 6 4 4 5 5 6 5 5 5 5 8 10 10 8
3 3 4 6 5 3 1 4 4 1 4 3 3 2 6 8 6 8 6 8 12 9 6 8 7 6 6 6 7 7 6 6 6 7 8 9 10 12 17 22 28 31 34 36 36 36 36 35 35 34 34 34 33 32 31 31 31 30 29 28 27 26 25 25 24 22 19 17 16 15 15 14 14 13 12 12 11 11 10 9 8 8 7 6 5 5 5 5 6 6 6 5 6 7 8 10 11
3 4 5 5 4 2 2 3 1 3 4 4 2 3 3 8 6 6 6 9 12 9 8 7 6 5 6 7 7 7 6 6 6 7 7 9 10 12 17 24 30 32 33 33 33 35 35 35 35 35 34 34 34 33 32 32 32 31 31 29 29 29 28 26 23 21 19 17 16 16 16 15 14 14 13 13 12 12 11 10 9 9 8 7 6 6 6 6 6 7 8 7 7 8 7 9 11
3 4 5 4 4 3 4 4 1 2 3 5 3 3 2 7 8 5 5 8 9 8 7 7 6 7 7 8 8 7 6 5 6 7 8 9 11 16 21 25 29 30 30 32 34 34 35 34 34 34 34 35 34 33 33 33 33 32 32 31 30 29 27 24 22 21 20 18 17 17 17 16 16 15 14 14 13 13 12 11 10 9 9 9 8 8 8 8 8 8 9 9 9 9 9 10 11
2 4 4 4 4 3 4 4 2 2 3 4 5 4 2 5 8 6 3 3 6 7 7 7 7 7 8 9 8 7 6 5 5 6 7 9 12 17 19 20 24 27 28 31 32 33 33 33 33 34 35 35 34 34 34 34 33 32 32 31 31 29 26 23 21 21 21 20 19 18 19 18 17 17 16 15 15 14 14 13 12 11 11 10 10 10 9 9 9 9 10 10 10 11 11 12 12
2 4 4 5 4 4 3 2 3 3 2 6 6 4 2 2 7 6 3 4 5 4 6 8 8 9 9 8 6 6 5 5 5 5 6 7 10 13 15 17 21 24 25 26 29 30 32 32 33 34 35 35 34 34 34 34 34 33 32 32 32 30 27 24 23 23 23 23 22 21 21 20 19 18 18 17 17 16 16 15 14 13 13 12 12 11 11 11 10 10 11 11 11 11 12 12 13
2 3 3 3 4 3 3 4 3 2 4 6 4 3 3 2 6 6 5 6 5 5 6 9 11 10 9 8 6 5 6 5 5 5 5 6 7 10 13 15 18 21 23 25 28 30 31 32 32 33 33 34 34 34 35 35 34 34 34 33 33 31 29 27 26 27 27 27 26 24 23 21 20 20 20 20 19 18 18 17 16 15 15 15 14 13 13 12 12 12 12 12 12 11 12 12 13
4 3 3 3 3 3 3 3 1 2 5 4 1 1 2 5 9 11 12 13 10 8 8 9 11 10 8 8 7 5 5 5 5 5 5 6 7 8 11 15 17 20 23 25 27 29 30 31 32 33 34 34 34 35 35 36 35 36 35 35 33 32 30 29 29 30 30 29 28 27 26 25 24 24 23 23 22 21 20 19 19 18 17 17 16 15 14 13 13 13 13 13 13 12 12 12 13
3 4 4 3 2 2 2 4 2 3 4 3 2 1 2 5 7 11 14 15 12 8 8 9 10 9 8 7 6 5 5 5 5 5 6 6 7 8 11 16 18 21 23 25 27 29 30 31 32 34 35 35 35 35 36 37 37 36 36 35 34 32 32 31 31 31 31 31 30 29 29 29 28 27 27 25 24 23 22 21 20 19 19 18 17 16 15 15 14 14 15 14 14 13 13 13 13
3 4 5 4 4 4 3 4 3 4 3 3 3 1 3 4 4 8 10 10 9 8 8 7 7 8 6 6 6 6 6 5 5 5 6 7 8 9 13 16 19 22 24 26 27 29 31 32 34 35 35 35 35 35 36 37 37 37 36 35 34 33 33 33 33 32 32 32 31 30 30 30 29 29 28 26 25 25 24 23 22 21 21 20 19 18 17 16 16 16 16 16 15 14 14 14 14
2 2 4 2 4 4 2 3 4 3 2 3 2 3 5 4 8 13 8 7 8 7 7 6 7 7 5 6 7 5 6 6 5 6 7 7 8 10 14 17 20 22 24 27 29 31 32 33 34 35 36 36 36 37 37 38 38 37 36 36 35 34 34 33 34 33 33 32 32 32 31 31 30 29 29 28 27 27 26 25 24 23 22 21 20 19 19 18 18 18 18 18 17 16 16 15 15
1 2 2 4 3 5 2 2 1 3 0 4 1 3 6 4 8 12 7 7 8 6 6 6 7 7 6 6 7 6 6 6 6 7 7 7 7 10 15 18 20 23 25 28 31 33 34 34 34 35 35 35 36 37 38 38 38 37 37 37 36 35 35 35 35 35 34 34 33 33 33 32 32 31 30 30 29 28 26 26 25 24 23 23 22 21 20 20 20 20 20 20 19 18 18 17 17
3 2 4 3 1 4 3 1 4 3 2 4 2 4 5 3 5 7 8 8 9 9 6 6 7 6 6 8 7 7 7 6 6 7 7 7 7 9 15 19 22 25 27 30 32 33 34 34 35 36 36 37 38 38 39 39 39 38 38 38 37 37 37 36 36 35 35 35 35 35 34 34 34 32 32 31 30 28 27 27 27 26 25 24 24 23 23 22 22 22 21 21 20 20 20 19 18
2 2 2 1 2 1 1 2 1 1 3 4 4 4 4 4 5 6 8 8 9 11 9 8 8 7 7 8 8 8 7 6 7 7 7 7 7 10 15 18 21 24 26 29 30 31 32 34 35 36 37 38 38 38 39 39 39 39 39 39 39 38 38 37 37 36 36 36 37 37 36 36 35 34 33 33 32 31 30 29 29 28 28 27 26 25 25 24 24 23 23 23 22 22 22 21 19
2 2 3 1 3 3 2 2 3 2 2 3 5 5 3 6 6 5 11 11 8 10 9 8 9 8 7 8 7 7 7 6 7 7 8 8 9 12 17 20 22 25 26 27 28 29 32 34 34 35 36 36 36 37 38 38 39 39 39 39 39 39 38 37 37 36 37 37 38 38 37 37 36 35 35 35 34 33 33 32 31 31 30 29 28 27 26 26 25 25 25 25 24 24 24 23 22
2 1 2 1 1 2 1 2 2 4 2 2 3 5 5 6 5 7 13 13 9 9 8 8 9 8 7 8 7 7 6 7 8 7 8 9 9 12 17 20 22 23 24 26 28 30 32 33 34 36 36 35 36 38 38 39 40 39 39 39 39 39 38 37 37 37 37 38 38 38 39 38 38 37 37 36 36 35 34 34 33 33 32 31 30 30 29 28 28 27 27 27 27 27 26 25 24
5 5 4 4 4 3 1 4 2 2 3 4 3 6 7 5 4 8 11 11 8 8 8 8 8 8 8 7 7 7 7 7 8 8 8 8 8 10 14 17 19 20 23 26 28 29 31 33 35 36 35 36 38 39 39 40 39 39 39 39 39 38 37 36 36 37 37 38 38 39 39 39 38 38 38 37 37 36 35 35 35 34 34 33 32 32 31 31 30 30 29 29 29 29 28 27 26
Wind_Direction
309 303 290 293 320 341 346 72 66 315 93 255 269 224 254 231 183 140 128 178 175 254 220 188 111 112 104 157 191 190 180 169 168 143 203 230 153 163 169 179 188 183 186 191 193 200 208 205 201 197 197 199 198 187 184 183 181 325 327 324 325 323 324 327 327 329 328 331 332 333 334 333 332 331 330 331 332 333 334 336 335 335 334 333 332 332 332 332 331 328 323 320 319 316 313 313 310
309 298 300 304 324 353 299 84 91 317 50 328 281 196 251 324 88 167 189 198 216 238 184 126 90 70 61 85 146 146 225 224 179 161 215 159 151 173 179 184 186 183 188 196 198 201 206 197 192 192 192 195 189 178 173 162 168 319 319 322 321 317 319 321 323 324 326 328 330 335 335 335 333 331 332 333 334 335 336 338 337 336 336 334 334 336 334 332 330 327 325 322 318 313 311 309 308
310 286 322 325 337 43 16 51 91 35 71 265 272 253 247 46 212 209 212 223 244 219 126 116 97 83 70 29 147 140 245 270 177 155 91 158 163 181 182 188 184 186 194 198 204 201 199 189 186 191 189 192 184 174 168 163 168 281 307 316 311 312 313 312 319 319 323 326 331 337 336 336 333 333 335 335 337 336 338 340 337 337 337 336 338 338 334 333 332 328 326 325 322 320 319 314 310
308 269 356 14 23 32 52 53 161 127 148 229 261 277 235 187 210 226 240 240 242 206 73 119 121 187 112 140 239 176 247 278 199 166 139 182 188 180 178 184 184 191 195 196 204 199 193 186 188 190 186 192 187 179 170 169 177 235 290 307 303 302 306 308 315 316 322 326 333 337 337 336 334 337 338 338 339 338 340 340 338 338 339 340 341 339 336 335 332 329 329 330 329 329 329 326 322
280 198 4 43 72 27 84 85 126 125 206 193 212 273 243 204 192 200 238 239 228 215 195 129 175 255 142 216 200 180 230 266 218 186 171 189 190 175 174 182 188 194 194 193 201 197 193 189 191 190 190 198 197 189 177 179 187 229 274 298 302 297 302 306 311 317 325 329 338 341 340 338 338 343 342 342 341 340 342 340 339 340 341 343 342 340 338 335 334 335 335 336 335 333 332 332 330
128 99 31 44 96 164 109 253 232 226 232 173 193 259 233 211 189 177 202 245 247 235 205 166 187 205 256 254 197 203 213 136 171 193 189 181 179 175 175 181 190 195 192 192 199 199 198 193 193 198 206 211 211 204 189 189 198 232 265 288 296 295 300 304 313 322 331 335 344 345 343 341 345 348 347 346 345 346 344 343 341 341 344 345 344 341 339 339 342 343 342 341 340 339 335 334 333
116 97 34 55 35 38 110 220 223 241 244 177 190 230 210 206 187 160 170 218 254 263 214 208 167 115 244 265 237 239 211 181 166 195 195 177 175 176 179 183 189 191 189 194 199 201 200 196 201 210 225 228 221 213 200 197 208 237 264 286 294 298 301 306 318 329 337 343 351 349 346 347 353 354 354 353 354 355 349 346 343 344 346 346 346 343 345 349 352 350 348 347 345 342 338 338 337
106 114 48 90 39 3 115 239 236 216 242 213 208 212 201 192 171 159 176 189 186 224 214 232 161 118 263 259 208 264 223 214 226 198 184 174 176 178 183 186 187 186 186 195 198 202 201 200 209 219 234 236 224 216 210 207 222 247 267 286 293 303 307 311 323 335 343 350 358 353 351 357 0 2 4 6 7 1 352 348 346 348 348 348 347 344 350 355 355 353 350 350 347 344 341 341 341
86 75 53 94 148 328 326 282 268 230 251 258 247 223 191 177 170 166 175 212 221 188 219 218 168 183 277 304 239 285 285 217 202 179 174 174 177 179 186 188 189 185 186 195 196 200 202 205 213 225 237 233 223 217 218 220 235 254 269 282 292 305 307 315 327 340 348 355 2 359 2 10 10 11 11 14 13 4 357 354 352 352 351 350 348 346 352 358 357 353 350 349 346 345 343 342 347
50 23 125 94 134 292 301 284 266 257 259 256 249 223 174 169 181 182 168 222 215 164 230 173 153 230 277 271 248 289 244 188 167 166 171 176 178 181 188 191 193 189 189 194 195 200 202 209 216 229 235 227 221 216 221 229 243 256 269 278 290 301 305 315 327 344 352 358 6 7 11 19 19 16 11 15 14 4 2 4 2 354 350 347 346 349 353 359 357 350 349 347 347 347 345 345 351
35 347 113 96 109 236 252 255 266 269 277 289 284 253 185 167 167 199 177 232 200 155 204 113 189 235 263 271 255 280 184 171 169 171 172 176 180 185 189 188 193 196 197 194 195 203 206 212 221 229 228 220 218 215 220 227 241 253 267 278 288 295 301 309 323 347 354 357 8 16 16 20 21 16 10 14 12 4 5 13 13 356 348 344 345 351 352 358 358 350 347 345 347 346 345 349 353
94 312 80 107 185 212 214 226 266 276 300 315 276 276 177 161 152 196 204 227 197 175 217 175 189 173 151 280 268 286 172 174 180 178 175 179 183 187 189 188 191 198 201 198 199 206 212 218 224 226 222 217 214 214 219 224 239 248 260 272 284 290 296 299 318 349 354 358 7 23 19 20 23 19 15 16 11 6 7 10 13 3 354 349 349 356 353 358 4 357 346 344 347 344 346 352 355
129 165 99 146 199 186 202 211 268 296 315 277 216 271 122 160 197 202 188 218 178 165 241 209 161 130 197 268 270 277 185 185 182 179 179 180 184 185 188 189 192 196 196 202 206 210 216 222 227 226 218 213 212 216 222 225 234 242 252 268 279 284 287 289 315 346 357 7 13 23 19 21 27 25 22 18 12 7 7 4 8 10 6 359 354 358 356 358 6 5 350 347 348 344 346 350 358
154 156 120 197 249 161 210 232 272 260 276 258 231 309 347 184 216 183 152 210 213 183 235 204 149 133 226 268 285 268 207 193 180 181 182 180 184 184 188 190 191 194 196 206 212 217 220 226 230 227 217 210 218 226 227 225 223 232 245 262 273 279 277 276 312 340 11 24 23 21 13 20 27 25 22 17 13 8 6 2 4 13 16 11 357 356 1 2 5 8 360 352 348 343 345 346 353
169 131 101 151 303 311 227 224 242 206 247 255 247 333 330 265 182 146 167 196 241 216 210 187 161 179 207 195 239 249 208 192 180 183 181 179 184 185 191 190 192 196 200 210 215 222 226 229 229 224 218 214 228 231 227 221 211 224 242 258 267 271 261 264 321 353 38 34 28 19 10 17 25 23 22 17 12 10 6 1 3 10 19 17 7 1 6 9 7 8 7 359 351 343 341 342 346
141 100 78 98 245 255 226 218 211 197 253 248 267 22 334 282 199 208 230 170 258 255 159 201 190 197 190 184 230 251 197 185 180 182 180 180 183 186 193 192 196 200 205 212 215 222 225 225 223 220 219 219 233 233 226 217 208 228 245 254 260 259 241 249 356 101 58 39 30 18 10 12 22 22 21 16 11 11 9 3 1 6 14 15 15 12 10 14 12 12 13 6 0 353 344 340 344
78 89 89 255 207 210 210 210 193 196 263 268 290 281 179 286 295 243 293 104 245 264 253 229 227 216 194 214 269 236 176 178 179 179 177 179 181 183 191 193 197 202 208 213 214 218 219 218 219 219 220 223 234 237 233 224 219 234 243 245 244 241 222 244 7 79 58 39 29 18 9 357 12 19 18 13 10 15 14 4 359 3 10 9 16 17 16 21 18 17 18 14 13 9 357 349 352
77 116 175 227 194 203 194 193 198 174 250 258 270 208 176 259 286 284 329 306 271 270 273 256 272 262 237 263 258 169 167 174 176 175 176 178 181 181 188 194 199 205 210 213 214 215 217 218 216 218 221 224 233 238 240 239 235 235 236 231 227 230 225 292 355 22 41 33 23 14 6 352 355 11 11 8 10 17 16 7 359 360 4 9 20 19 21 28 24 18 17 18 19 16 11 9 11
137 134 187 228 200 215 205 188 196 176 225 242 266 215 179 222 232 80 258 274 297 265 268 257 261 265 262 257 164 163 165 170 174 176 178 181 185 187 192 197 200 208 212 214 216 214 217 219 215 216 221 226 232 236 240 245 239 232 225 220 221 238 260 284 337 5 17 14 7 3 1 353 342 354 4 1 8 19 19 12 359 356 360 11 23 20 26 33 27 21 19 20 20 21 22 25 28
182 141 212 242 214 230 240 200 198 204 197 218 273 231 183 233 210 123 234 269 281 238 242 230 236 247 243 218 172 168 166 171 178 180 183 188 192 195 197 200 203 210 214 217 219 217 217 217 214 215 220 227 231 232 236 243 236 227 223 221 228 250 276 277 304 339 350 353 351 346 348 349 336 332 357 359 10 22 23 18 4 358 360 13 25 22 29 35 30 27 26 23 21 25 29 32 34
182 160 205 236 192 234 250 208 200 208 180 186 245 343 263 259 205 200 194 273 273 238 227 218 224 234 223 205 188 179 174 179 185 187 190 194 198 201 204 206 209 214 217 220 221 218 215 215 214 212 216 224 229 229 231 238 232 225 227 229 236 255 271 270 276 287 314 332 335 330 335 342 330 319 356 7 21 29 27 22 12 7 6 14 25 24 29 35 34 30 27 23 20 25 32 35 36
183 209 204 206 157 231 252 209 205 194 149 209 206 217 258 276 239 217 184 224 251 223 218 218 223 234 213 192 190 185 186 190 192 196 198 200 203 206 210 213 215 217 219 221 220 215 213 213 213 211 214 219 224 226 228 234 229 227 234 237 240 255 266 266 264 261 291 308 314 320 328 335 323 312 360 20 33 36 31 23 18 16 19 19 23 26 29 35 36 31 27 26 23 26 35 40 40
220 256 241 226 184 212 239 190 208 178 146 211 204 225 260 344 280 232 198 227 237 213 201 205 221 234 213 187 183 187 195 196 198 201 202 203 207 209 212 215 216 217 218 220 218 214 212 211 210 210 214 218 221 222 225 229 226 228 238 243 245 251 257 259 250 248 266 274 297 319 327 331 319 312 2 33 42 38 30 23 22 24 30 25 24 27 29 37 37 32 31 34 34 33 39 44 45
206 249 283 256 201 210 217 182 192 175 189 220 208 325 255 238 269 297 230 237 240 240 229 209 231 235 200 180 186 195 199 200 205 206 205 206 209 212 214 216 217 216 220 222 219 215 212 209 206 208 214 219 218 217 221 226 224 226 236 241 243 242 242 241 238 238 246 257 290 316 327 329 316 328 12 44 43 36 29 23 24 29 34 27 27 28 30 38 38 34 33 38 44 44 47 49 51
215 227 261 264 215 235 230 196 199 196 219 241 343 290 246 231 262 309 261 251 245 241 241 238 248 238 187 188 197 200 203 207 211 211 211 213 214 216 217 218 216 216 221 223 219 215 211 207 204 207 213 216 216 217 220 223 220 223 231 235 238 237 234 234 234 228 234 253 284 308 321 324 322 352 21 48 46 35 28 25 27 33 34 27 28 30 30 33 37 38 34 39 50 53 53 55 58
227 211 250 271 265 266 229 215 230 222 237 170 257 268 266 256 285 278 259 257 257 234 233 237 229 227 215 205 201 199 206 209 212 213 215 218 217 218 219 217 215 217 221 220 216 211 207 204 203 207 213 214 214 216 218 219 217 220 225 228 237 239 235 239 232 219 232 258 278 295 306 314 348 12 26 49 58 33 28 27 31 40 36 28 30 38 34 29 38 42 40 45 54 59 59 59 61
215 200 268 258 263 281 195 225 249 218 247 177 206 265 279 287 333 265 252 256 259 207 227 236 218 228 226 218 213 203 207 210 210 211 214 218 217 219 220 216 215 217 216 213 213 209 203 203 204 208 213 215 214 215 217 216 214 217 219 223 237 239 237 242 233 224 235 254 268 279 289 304 351 21 38 63 100 37 31 28 33 42 36 31 34 46 43 34 47 51 54 61 63 66 67 65 64
198 239 295 277 287 296 219 237 253 175 252 191 185 269 281 320 218 244 248 294 80 183 233 240 220 233 229 224 225 209 215 216 210 207 208 212 213 215 217 216 214 215 213 210 210 206 203 205 206 208 212 215 215 215 214 212 213 215 214 220 233 235 236 240 230 226 235 250 263 268 274 289 313 17 55 99 138 55 38 31 36 39 32 33 37 50 57 54 64 65 74 81 79 75 74 72 70
302 34 301 291 327 309 240 235 215 169 221 182 164 288 277 210 220 242 255 349 336 246 249 244 227 237 234 230 227 220 225 216 208 209 213 214 214 214 215 218 215 214 215 212 210 208 207 208 208 208 210 214 215 215 211 209 211 210 210 219 230 232 230 233 225 223 234 249 258 260 265 277 269 206 99 116 120 78 48 37 39 38 32 31 39 58 73 72 73 85 100 97 93 87 80 78 75
301 6 234 295 341 309 263 252 142 159 185 167 152 291 269 233 238 250 273 321 295 275 261 248 238 241 236 231 227 232 230 213 211 216 217 216 216 217 218 220 217 216 216 213 213 212 211 209 207 208 210 213 214 213 211 207 208 208 211 219 230 230 224 225 219 220 234 246 253 255 260 274 259 210 141 141 137 105 68 54 48 42 34 31 46 72 79 74 71 82 107 108 100 94 86 82 78
331 290 256 307 316 281 291 353 136 155 185 144 138 250 266 269 264 261 280 278 238 254 263 255 248 244 236 231 225 235 233 219 222 222 220 219 218 219 220 221 217 215 214 212 214 213 210 207 205 208 210 213 212 211 210 207 207 208 212 220 226 224 220 221 217 220 235 246 253 254 260 271 258 217 169 165 153 121 89 72 61 51 40 33 53 82 85 76 69 76 102 115 107 99 93 88 84
24 269 292 325 197 263 304 269 156 159 281 127 139 233 271 278 279 279 315 335 186 234 263 263 256 250 240 235 224 234 239 230 231 230 226 221 219 218 218 219 215 213 212 211 211 208 207 205 204 207 210 212 211 210 209 208 208 209 213 220 221 216 216 221 217 221 236 247 253 253 262 271 263 231 190 178 169 139 107 89 77 65 53 42 54 93 98 80 69 72 92 116 116 106 101 95 92
340 205 253 271 193 274 318 297 189 171 98 215 199 244 278 276 281 294 5 64 134 255 268 263 257 254 244 239 230 231 240 239 236 234 230 223 220 218 216 216 213 211 211 210 208 205 206 205 205 208 210 211 209 208 207 207 208 210 213 217 216 214 218 221 217 221 236 247 251 252 262 268 264 244 210 192 182 161 131 117 100 84 71 52 56 99 103 85 71 69 83 110 117 110 109 102 97
305 276 244 252 211 260 307 303 288 127 163 239 227 239 259 266 275 284 292 314 311 278 269 264 258 254 247 242 239 235 233 235 234 232 227 222 220 219 217 216 213 210 209 209 209 208 208 205 205 208 210 209 207 205 204 205 207 208 213 215 214 215 218 220 219 223 236 245 247 251 258 261 261 247 227 214 195 178 157 150 138 117 101 67 64 96 107 95 78 68 79 104 117 114 114 106 100
223 217 225 285 290 255 262 281 275 150 202 252 248 254 258 267 274 275 275 274 269 265 265 267 263 256 252 245 243 240 235 235 235 230 224 219 217 217 216 214 211 210 209 210 210 210 209 206 205 208 209 207 204 203 202 203 204 205 209 212 213 214 217 218 218 225 234 242 245 250 254 255 255 245 230 223 212 200 179 171 170 157 142 103 84 101 117 110 91 76 78 101 117 116 114 109 105
166 187 178 241 287 278 253 264 253 175 220 257 239 250 263 272 278 277 274 251 244 257 264 269 267 261 255 247 245 240 234 237 239 233 222 215 213 212 211 209 209 209 209 209 209 208 206 204 204 206 207 205 202 200 199 198 198 201 205 207 208 211 215 216 218 225 231 238 243 248 252 252 250 242 230 222 222 220 201 187 187 182 177 156 123 118 120 116 104 88 85 104 119 119 117 114 112
162 200 229 247 255 282 273 271 292 190 219 257 239 251 266 271 275 278 280 263 248 255 262 267 265 262 254 246 247 241 235 242 244 232 219 211 209 207 205 203 204 205 206 206 205 205 204 203 203 205 205 203 201 198 196 196 196 198 201 205 207 208 211 213 216 222 228 234 240 246 249 249 247 240 231 222 223 229 217 205 201 196 191 175 145 121 109 107 110 98 95 110 126 125 122 121 120
217 239 274 286 242 263 267 248 299 338 157 270 278 285 276 270 273 276 280 271 260 252 252 262 262 261 258 246 248 246 242 247 234 218 210 204 202 200 199 197 197 198 199 201 203 203 203 203 205 206 204 202 202 201 198 199 201 203 204 205 207 206 208 213 216 221 226 232 237 243 245 246 246 240 234 225 222 230 228 220 216 213 202 179 158 130 107 109 125 119 107 111 127 129 127 134 133
197 195 259 287 257 278 288 286 319 348 166 281 310 307 284 276 273 273 272 264 262 254 239 250 259 264 262 248 246 249 249 241 218 212 205 198 196 193 192 193 196 198 198 199 202 202 201 203 206 206 205 203 203 203 202 204 207 209 210 209 208 206 208 213 218 222 227 232 235 239 241 241 243 241 234 226 223 228 231 228 222 224 218 190 171 156 147 151 147 148 125 114 125 128 131 146 151
204 174 186 267 276 308 282 295 323 309 228 278 306 300 284 283 283 279 271 253 260 270 249 248 250 253 259 257 250 240 237 235 221 217 205 193 191 188 189 191 194 195 195 197 199 200 201 203 205 206 206 204 203 204 206 207 208 208 210 211 210 208 209 210 213 220 225 229 231 233 236 236 238 239 235 228 226 227 229 230 224 227 229 213 189 177 174 172 161 160 146 128 130 133 136 152 168
270 197 194 236 250 221 231 285 320 320 319 321 318 303 285 300 326 298 291 280 276 290 291 278 258 248 262 273 264 242 231 225 212 211 202 188 189 190 191 191 191 192 194 197 198 200 203 204 206 207 207 206 204 205 206 207 206 204 203 203 202 203 205 204 205 211 217 221 224 227 231 232 234 236 234 228 226 228 228 228 226 227 233 225 203 186 182 175 173 172 162 151 144 141 141 143 156
303 237 198 196 187 203 272 328 347 1 344 334 12 345 291 302 317 284 296 326 305 298 302 288 277 269 271 268 263 255 245 228 209 207 198 191 193 191 191 190 189 192 196 198 200 202 204 205 207 208 207 206 206 206 206 205 205 203 200 195 194 194 195 198 204 209 213 216 219 223 226 229 231 231 231 228 225 227 226 225 225 227 232 228 208 193 185 174 176 180 173 169 157 145 142 136 127
300 254 174 158 146 140 20 7 18 2 278 285 61 85 270 296 295 266 285 315 305 304 303 286 282 283 268 255 260 259 251 232 213 209 200 195 192 187 191 194 193 196 199 200 201 202 204 206 208 208 208 207 206 206 206 205 205 204 203 202 199 198 198 202 209 214 216 216 217 220 224 226 227 227 227 226 223 224 224 222 222 223 227 224 211 200 189 173 174 178 175 173 163 152 148 140 128
240 230 133 126 129 147 146 90 94 233 273 311 27 128 252 293 277 259 298 311 310 317 312 301 302 291 275 262 257 253 244 223 205 204 200 199 197 192 195 196 197 199 200 200 201 203 205 207 209 209 208 207 206 206 206 206 206 205 206 207 206 206 208 210 211 211 213 215 216 218 222 224 224 223 223 223 221 220 220 219 217 217 218 214 207 201 192 179 177 175 174 175 173 171 175 163 148
235 198 132 122 125 143 137 113 171 280 342 315 286 144 208 279 274 290 322 307 306 307 290 288 300 303 299 282 262 254 249 231 213 206 203 202 201 201 199 198 200 201 201 201 203 205 206 208 209 209 208 207 207 207 206 208 209 209 208 209 210 211 213 214 211 208 208 210 214 216 219 221 220 220 218 219 218 215 216 215 212 212 212 208 202 199 193 184 179 178 178 180 183 182 187 184 174
206 140 100 60 71 86 86 103 134 22 356 256 227 182 191 275 281 299 328 278 271 277 275 271 276 290 295 283 271 267 262 247 232 219 212 211 208 207 204 201 202 202 203 204 205 206 206 207 208 207 208 208 207 207 207 208 210 211 211 211 211 210 210 210 207 205 205 208 211 214 216 217 216 216 214 214 213 211 211 210 208 208 208 205 201 199 196 189 184 184 184 183 185 185 184 188 186
138 109 73 35 32 43 52 62 89 66 302 257 233 203 164 287 280 269 240 230 226 244 287 290 290 300 296 281 271 267 266 251 232 226 223 218 214 211 207 205 205 204 206 206 206 206 206 206 207 207 208 208 208 208 208 209 209 211 212 212 212 210 208 205 201 200 201 205 209 211 213 213 213 213 212 210 208 207 207 205 205 207 206 205 202 200 199 195 189 187 187 185 184 186 183 184 181
96 101 76 31 351 12 29 357 39 98 252 266 253 199 150 223 265 259 248 256 235 218 269 284 287 293 290 285 277 258 257 251 228 220 216 203 200 205 206 207 206 203 205 206 206 205 205 206 205 205 207 207 208 208 208 209 210 211 213 214 214 214 212 209 205 204 204 206 208 208 208 208 208 209 209 208 205 204 205 202 202 204 206 205 203 202 198 195 192 188 188 186 183 183 179 179 176
79 98 77 53 341 358 351 308 328 204 244 271 284 162 180 235 258 264 267 272 261 233 240 257 266 270 273 285 288 267 252 243 224 213 205 196 195 198 200 203 202 201 204 205 204 204 204 205 205 204 206 207 208 208 208 209 211 212 213 215 217 218 217 215 213 212 211 211 210 207 206 205 206 205 206 207 204 203 204 203 202 204 206 206 203 202 197 194 192 189 187 185 181 179 176 177 173
135 152 124 118 114 66 285 275 280 260 258 272 282 273 264 269 264 251 251 263 266 252 241 241 246 251 259 278 289 282 263 243 227 215 205 204 203 200 200 200 201 202 204 203 203 203 202 203 204 205 208 208 208 208 209 210 212 214 216 218 220 219 219 219 218 218 216 215 213 212 211 210 208 207 207 207 205 204 205 204 205 205 205 204 201 199 196 193 191 189 186 183 179 176 175 176 171
177 173 131 139 155 153 226 241 223 249 281 296 293 279 210 223 265 249 235 253 271 267 259 256 253 251 260 285 291 283 267 248 234 225 219 217 209 202 202 202 202 203 203 202 203 202 202 203 204 205 207 208 208 209 210 212 215 217 219 220 221 221 221 221 221 221 220 218 217 216 216 215 213 212 210 209 207 206 205 204 204 204 202 201 200 198 195 192 189 187 184 181 177 175 174 172 169
205 152 109 167 188 152 188 207 188 199 309 296 265 243 221 215 282 285 275 277 279 275 277 280 272 277 305 303 283 270 260 249 234 230 232 230 218 207 204 204 204 204 202 202 203 202 202 203 204 206 208 209 210 210 212 215 217 218 219 220 221 221 222 222 221 222 221 221 221 220 219 219 217 215 212 210 208 207 206 203 201 202 202 200 199 198 196 191 189 187 183 181 177 174 176 174 170
169 124 172 227 187 116 116 248 325 69 236 272 243 253 283 317 293 290 317 329 308 308 308 283 268 288 314 289 269 259 251 242 230 227 229 229 221 214 210 207 205 204 203 204 204 204 205 205 205 207 209 211 212 213 214 216 217 218 219 219 221 221 222 222 222 222 222 222 222 223 222 220 217 215 212 211 208 206 205 203 201 201 201 200 199 197 196 192 189 188 186 184 180 177 178 175 173
121 171 227 238 130 79 89 238 342 28 233 274 275 241 277 317 286 301 339 329 303 302 305 300 289 284 278 268 262 254 244 242 244 239 236 232 226 220 215 212 210 207 207 208 208 208 207 208 209 209 210 212 214 215 216 218 218 218 219 219 221 222 223 224 225 225 223 221 221 221 221 219 216 214 212 210 208 205 204 204 203 202 201 200 200 197 196 193 190 188 186 185 183 181 179 176 176
119 199 229 110 144 131 79 151 242 287 264 284 294 278 259 230 241 290 296 278 276 287 297 309 296 262 247 257 262 261 254 250 249 241 236 233 227 224 219 216 216 214 213 213 212 211 210 212 213 213 214 216 217 217 217 219 219 219 220 220 221 223 224 225 225 225 224 222 221 220 218 217 215 213 211 209 208 206 204 204 203 203 201 200 199 198 196 193 191 189 186 184 183 183 183 178 177
32 334 331 6 173 174 159 167 167 189 252 281 305 314 258 228 220 236 264 261 253 268 282 291 280 257 242 246 252 256 248 238 237 231 231 230 226 225 221 218 217 216 216 216 213 213 214 215 215 216 218 219 219 219 219 219 220 220 221 221 222 223 224 225 225 224 224 223 222 220 218 217 214 213 212 210 209 208 206 204 203 203 201 199 198 197 196 194 193 191 189 188 185 186 187 182 180
126 234 271 256 194 163 191 243 143 140 189 219 282 289 255 244 228 219 252 262 243 241 257 267 270 266 257 249 246 251 246 239 238 232 232 231 229 229 225 223 222 219 219 218 215 216 216 216 217 217 219 219 219 220 220 221 221 221 221 222 223 223 224 225 225 224 224 224 222 220 218 216 214 213 212 211 210 209 207 205 203 203 202 200 199 197 197 196 194 193 192 191 189 189 189 186 184
158 184 208 186 170 135 138 273 279 121 179 181 197 269 262 247 229 223 243 258 251 237 240 257 269 268 266 264 253 247 247 246 241 235 237 235 231 230 225 224 222 219 219 219 218 217 217 217 219 219 219 219 220 221 221 221 221 221 222 223 223 224 223 224 224 223 223 222 221 219 217 215 214 213 213 211 211 209 208 206 204 203 203 202 201 200 199 198 197 195 193 192 192 191 189 187 186